Weather History for KOWB - May, 2013

Change the Weather History Date:

Saturday, May 18, 2013

  Actual Average (WUND) Record (WUND)
Temperature  
Mean Temperature 74 °F -  
Max Temperature 81 °F - - (-1)
Min Temperature 68 °F - - (-1)
Cooling Degree Days 10    
Growing Degree Days 24 (Base 50)    
Moisture  
Dew Point 71 °F    
Average Humidity 89    
Maximum Humidity 100    
Minimum Humidity 61    
Precipitation  
Precipitation 0.00 in - - ()
Sea Level Pressure  
Sea Level Pressure 29.98 in    
Wind  
Wind Speed 5 mph (SE)    
Max Wind Speed 8 mph    
Max Gust Speed -    
Visibility 5 miles    
Events Rain    
Averages and records for this station are not official NWS values.
T = Trace of Precipitation, MM = Missing Value Source: NWS Daily Summary

Daily Weather History Graph

Daily Weather History Graph

Search for Another Location

Airport or City:

Trip Planner

Search our weather history database for the weather conditions in past years. The results will help you decide how hot, cold, wet, or windy it might be!

Date:

Astronomy

May. 18, 2013 Rise Set
Actual Time 5:36 AM CDT 7:54 PM CDT
Civil Twilight 5:06 AM CDT 8:24 PM CDT
Nautical Twilight 4:30 AM CDT 9:00 PM CDT
Astronomical Twilight 3:50 AM CDT 9:40 PM CDT
Moon 1:04 PM CDT (5/18) 1:20 AM CDT (5/18)
Length of Visible Light 15h 17m
Length of Day
14h 18m
First Quarter, 55% of the Moon is Illuminated
May 18
First Quarter
May 24
Full
May 31
Last Quarter
Jun 8
New
Jun 16
First Quarter

Hourly Weather History & Observations

Time (CDT) Temp. Heat Index Dew Point Humidity Pressure Visibility Wind Dir Wind Speed Gust Speed Precip Events Conditions
12:56 AM 70.0 °F - 66.9 °F 90% 29.99 in 10.0 mi ESE 8.1 mph - N/A   Overcast
1:56 AM 68.9 °F - 68.0 °F 97% 29.98 in 5.0 mi SSE 8.1 mph - 0.00 in Rain Light Rain
2:07 AM 71.6 °F - 71.6 °F 100% 29.98 in 2.5 mi ESE 5.8 mph - 0.00 in Rain Light Rain
2:21 AM 71.6 °F - 71.6 °F 100% 29.98 in 1.5 mi ESE 4.6 mph - 0.00 in Rain Light Rain
2:33 AM 73.4 °F - 73.4 °F 100% 29.98 in 1.5 mi ESE 4.6 mph - 0.00 in Rain Light Rain
2:44 AM 75.2 °F - 75.2 °F 100% 29.98 in 1.8 mi ESE 4.6 mph - 0.00 in Rain Light Rain
2:56 AM 77.0 °F - 77.0 °F 100% 29.97 in 2.5 mi ESE 6.9 mph - 0.00 in   Overcast
3:07 AM 80.6 °F 89.3 °F 80.6 °F 100% 29.98 in 4.0 mi ESE 6.9 mph - N/A   Overcast
3:56 AM 81.9 °F 94.0 °F 81.9 °F 100% 29.98 in 2.0 mi SE 3.5 mph - N/A   Overcast
4:24 AM 75.2 °F - 75.2 °F 100% 29.98 in 1.8 mi East 5.8 mph - 0.00 in Rain Light Rain
4:42 AM 73.4 °F - 73.4 °F 100% 29.98 in 2.0 mi East 5.8 mph - 0.00 in   Overcast
4:56 AM 72.9 °F - 72.9 °F 100% 29.97 in 2.0 mi East 8.1 mph - 0.00 in   Overcast
5:21 AM 71.6 °F - 71.6 °F 100% 29.99 in 4.0 mi ESE 5.8 mph - N/A   Overcast
5:56 AM 72.0 °F - 72.0 °F 100% 29.99 in 3.0 mi ESE 4.6 mph - 0.00 in   Overcast
6:56 AM 72.0 °F - 72.0 °F 100% 30.00 in 3.0 mi ESE 3.5 mph - N/A   Overcast
7:56 AM 72.9 °F - 72.9 °F 100% 30.00 in 3.0 mi ESE 6.9 mph - N/A   Overcast
8:56 AM 72.0 °F - 70.9 °F 96% 30.01 in 4.0 mi SE 5.8 mph - N/A   Overcast
9:56 AM 72.9 °F - 70.9 °F 93% 30.01 in 7.0 mi South 5.8 mph - N/A   Overcast
10:56 AM 74.8 °F - 72.0 °F 91% 30.01 in 6.0 mi East 3.5 mph - N/A   Overcast
11:56 AM 72.0 °F - 68.9 °F 90% 30.01 in 6.0 mi ESE 3.5 mph - N/A   Overcast
12:56 PM 73.9 °F - 66.9 °F 79% 30.00 in 7.0 mi Variable 3.5 mph - N/A   Overcast
1:56 PM 79.9 °F - 65.8 °F 62% 29.97 in 7.0 mi SE 4.6 mph - N/A   Mostly Cloudy
2:15 PM 80.6 °F 82.7 °F 66.2 °F 61% 29.98 in 7.0 mi Calm Calm - N/A   Mostly Cloudy
2:56 PM 77.0 °F - 66.9 °F 71% 29.97 in 7.0 mi East 4.6 mph - N/A   Overcast
3:56 PM 77.0 °F - 66.9 °F 71% 29.96 in 7.0 mi SW 4.6 mph - N/A   Overcast
4:56 PM 77.9 °F - 66.9 °F 69% 29.96 in 8.0 mi Calm Calm - N/A   Mostly Cloudy
5:56 PM 79.9 °F - 66.9 °F 64% 29.95 in 10.0 mi South 3.5 mph - N/A   Clear
6:56 PM 79.9 °F - 68.9 °F 69% 29.95 in 10.0 mi SW 3.5 mph - 0.00 in   Scattered Clouds
7:56 PM 75.9 °F - 66.9 °F 74% 29.95 in 10.0 mi Calm Calm - N/A   Clear
8:56 PM 72.9 °F - 65.8 °F 79% 29.97 in 10.0 mi Calm Calm - 0.00 in   Clear
9:56 PM 70.9 °F - 66.9 °F 87% 29.97 in 10.0 mi ESE 3.5 mph - N/A   Clear
10:56 PM 68.9 °F - 66.9 °F 93% 29.96 in 8.0 mi SE 3.5 mph - N/A   Clear
11:56 PM 70.0 °F - 68.9 °F 96% 29.95 in 6.0 mi ESE 4.6 mph - N/A   Clear